小惑星A/2020 F7

A/2020 F7

English version
Home page
Updated on February 21, 2021

---------------------------------------------------------------------

・ プロフィール

発見日 2020年3月22日
発見光度 20.2等
発見者 Mt. Lemmon Survey

・ 写真集

・ 軌道要素

Epoch 2021 Nov. 2.0 TT = JDT 2459520.5
T 2021 Nov. 14.00555 TT                                 Rudenko
q   5.3321146            (2000.0)            P               Q
z  +0.0014418      Peri.  227.96947     -0.49516866     +0.61291152
 +/-0.0000016      Node   321.88672     +0.71087382     -0.12161992
e   0.9923122      Incl.   93.95349     -0.49946613     -0.78073559
H   12.0
From 238 observations 2020 Jan. 4-2021 Jan. 22, mean residual 0".5.

・ 光度変化

        m1 = -0.8 + 5 logΔ + 20.0 log r

---------------------------------------------------------------------

軌道要素はM.P.E.C. 2021-B143に掲載されたものです。
光度グラフはComet for Windowsで作成したものです。

---------------------------------------------------------------------

Copyright(C) Seiichi Yoshida (comet@aerith.net). All rights reserved.